This is the latest recevied weather packets stored in our database for station/object KO4WIL-13. If no packets are shown the sender has not sent any weather packets the latest 10 day(s).
| Time | Temp. | Humidity | Pressure | Rain* | Wind** | Luminosity | Snow |
|---|---|---|---|---|---|---|---|
| 1777226922 | 21.11° C | 65% | 967.1 hPa | 0 mm | - | - | - |
| 1777226620 | 21.11° C | 67% | 967.2 hPa | 0 mm | - | - | - |
| 1777226318 | 21.67° C | 68% | 967.2 hPa | 0 mm | - | - | - |
| 1777226016 | 21.67° C | 64% | 967.2 hPa | 0 mm | - | - | - |
| 1777225714 | 21.11° C | 67% | 967.3 hPa | 0 mm | - | - | - |
| 1777225412 | 20.56° C | 70% | 967.4 hPa | 0 mm | - | - | - |
| 1777225110 | 20.56° C | 70% | 967.4 hPa | 0 mm | - | - | - |
| 1777224808 | 20° C | 72% | 967.4 hPa | 0 mm | - | - | - |
| 1777224506 | 20° C | 73% | 967.5 hPa | 0 mm | - | - | - |
| 1777224204 | 19.44° C | 76% | 967.5 hPa | 0 mm | - | - | - |
| 1777223902 | 20° C | 75% | 967.7 hPa | 0 mm | - | - | - |
| 1777223599 | 20° C | 74% | 967.7 hPa | 0 mm | - | - | - |
| 1777223297 | 19.44° C | 77% | 967.7 hPa | 0 mm | - | - | - |
| 1777222995 | 18.89° C | 78% | 967.7 hPa | 0 mm | - | - | - |
| 1777222691 | 18.89° C | 81% | 967.8 hPa | 0 mm | - | - | - |
| 1777222389 | 18.89° C | 80% | 967.9 hPa | 0 mm | - | - | - |
| 1777222087 | 18.89° C | 81% | 967.9 hPa | 0 mm | - | - | - |
| 1777221785 | 18.89° C | 79% | 968 hPa | 0 mm | - | - | - |
| 1777221483 | 18.89° C | 80% | 968 hPa | 0 mm | - | - | - |
| 1777221181 | 18.89° C | 79% | 968 hPa | 0 mm | - | - | - |
| 1777220879 | 18.89° C | 80% | 968 hPa | 0 mm | - | - | - |
| 1777220577 | 18.89° C | 79% | 968 hPa | 0 mm | - | - | - |
| 1777220275 | 18.89° C | 80% | 968 hPa | 0 mm | - | - | - |
| 1777219973 | 18.33° C | 80% | 968 hPa | 0 mm | - | - | - |
| 1777219671 | 18.33° C | 82% | 968 hPa | 0 mm | - | - | - |
* Rain latest hour (hover to see other rain measurements)
** Current wind speed in m/s (hover to see current wind gust speed)